Tracking 23764 objects as of 17-Oct-2021
HD Live streaming from Space Station
objects crossing your sky now

IRIDIUM 33 DEB

Track IRIDIUM 33 DEB now!
10-day predictions


NORAD ID: 38233
Int'l Code: 1997-051ZH
Perigee: 718.7 km
Apogee: 947.4 km
Inclination: 86.2 °
Period: 101.4 minutes
Semi major axis: 7204 km
RCS: 0.0081 m2 (small)
Launch date: September 14, 1997
Source: United States (US)
Launch site: TYURATAM MISSILE AND SPACE COMPLEX (TTMTR)

Note: This is SATELLITE DEBRIS
aabbcc
Your satellite tracking list
Your tracking list is empty




NASA's NSSDC Master Catalog

Two Line Element Set (TLE):
1 38233U 97051ZH  21287.93810451  .00002757  00000-0  11385-2 0  9993
2 38233  86.2123 343.7193 0158674  62.0345  58.8984 14.19837374439290
Source of the keplerian elements: AFSPC